Location: Diebersbach
(48.5163°N, 8.0558°E)
Time: 00:37:38
(UTC+00:00)

FENGYUN 1C DEB - Pass Details

Date: 29 January 2022
Orbit: 690 x 984 km, 98.6° (Epoch: 23 May)

Event Time Altitude Azimuth Distance (km) Brightness Sun altitude
Rises 19:04:46 0° 212° (SSW) 3,634 ? -27.0°
Reaches altitude 10° 19:08:03 10° 230° (SW) 2,719 ? -27.6°
Maximum altitude 19:12:11 19° 273° (W) 2,181 ? -28.2°
Drops below altitude 10° 19:16:23 10° 316° (NW) 2,748 ? -28.9°
Sets 19:19:44 0° 334° (NNW) 3,688 ? -29.5°
